Zurück zum Katalog

CZ-6A DEB

AktivPO
NORAD 54888·DEBRIS·🇨🇳 China

Gestartet Nov 11, 2022 von Taiyuan Satellite Launch Center

Loading…

Nächste Überflüge (nächste 24 Stunden)

TLE

AktuellSource: Space-Track

Epoche: Sep 14, 2026, 06:53 UTC

1 54888U 22151PZ  26257.28698063  .00028954  00000-0  20080-2 0  9998
2 54888  98.6360   7.8468 0054139 229.0880 130.5648 15.04357615205170

Verfolge CZ-6A DEB in Echtzeit mit AllMySat

Download on the App Store